Location: Dortmund
(51.5019°N, 7.6520°E)
Time: 19:38:39
(UTC+01:00)

ISS - Pass Details

Date: 11 February 2018
Orbit: 402 x 407 km, 51.6° (Epoch: 24 February)

Event Time Altitude Azimuth Distance (km) Brightness Sun altitude
Rises 19:23:19 0° 279° (W) 2,321 1.7 -17.0°
Reaches altitude 10° 19:26:16 10° 250° (WSW) 1,458 0.1 -17.4°
Maximum altitude 19:27:49 13° 221° (SW) 1,293 -0.7 -17.7°
Drops below altitude 10° 19:29:23 10° 192° (SSW) 1,454 -0.9 -17.9°
Enters shadow 19:31:04 - 172° (S) 1,895 -0.5 -18.2°
